Location: Chuathbaluk
(61.5726°N, 159.2454°W)
Time: 21:40:56
(UTC+00:00)

Transit 4A - Pass Details

Date: 04 December 2020
Orbit: 864 x 981 km, 66.8° (Epoch: 19 January)

Event Time Altitude Azimuth Distance (km) Brightness Sun altitude
Rises 17:13:59 0° 190° (S) 3,650 11.1 -14.2°
Reaches altitude 10° 17:16:44 10° 182° (S) 2,717 10.6 -13.9°
Maximum altitude 17:22:23 35° 119° (ESE) 1,537 9.8 -13.3°
Drops below altitude 10° 17:28:05 10° 57° (ENE) 2,743 10.8 -12.7°
Sets 17:30:52 0° 49° (NE) 3,689 11.4 -12.4°
